Location: ?ejkovice
(49.0137°N, 14.3821°E)
Time: 20:24:42
(UTC+00:00)

Meteor 1-4 Rocket - Pass Details

Date: 23 May 2024
Orbit: 357 x 378 km, 81.2° (Epoch: 20 June)

Event Time Altitude Azimuth Distance (km) Brightness Sun altitude
Exits shadow 23:28:46 - 92° (E) 1,424 5.0 -20.0°
Enters shadow 00:24:52 -71° 194° (SSW) 12,427 9.7 -17.8°
Maximum altitude 01:01:31 44° 284° (WNW) 508 2.5 -15.2°
